Change the Weather History Date:

Tuesday, January 8, 2013

  Actual Average Record
Temperature  
Mean Temperature 43 °F -  
Max Temperature 54 °F 36 °F 73 °F (2003)
Min Temperature 32 °F 19 °F 0 °F (2015)
Degree Days  
Heating Degree Days 22    
Moisture  
Dew Point 29 °F    
Average Humidity 63    
Maximum Humidity 88    
Minimum Humidity 40    
Precipitation  
Precipitation 0.00 in - - ()
Sea Level Pressure  
Sea Level Pressure 30.05 in    
Wind  
Wind Speed 11 mph (South)    
Max Wind Speed 21 mph    
Max Gust Speed 30 mph    
Visibility 10 miles    
Events      
Averages and records for this station are not official NWS values.
T = Trace of Precipitation, MM = Missing Value Source: NWS Daily Summary

Daily Weather History Graph

Daily Weather History Graph

Search for Another Location

Airport or City:

Trip Planner

Search our weather history database for the weather conditions in past years. The results will help you decide how hot, cold, wet, or windy it might be!

Date:

Astronomy

Jan. 08, 2013 Rise Set
Actual Time 7:38 AM CST 5:15 PM CST
Civil Twilight 7:08 AM CST 5:44 PM CST
Nautical Twilight 6:35 AM CST 6:17 PM CST
Astronomical Twilight 6:03 AM CST 6:49 PM CST
Moon 4:12 AM CST (1/8) 2:18 PM CST (1/8)
Length of Visible Light 10h 36m
Length of Day
9h 36m
Waning Crescent, 13% of the Moon is Illuminated
Jan 8
Waning Crescent
Jan 11
New
Jan 18
First Quarter
Jan 26
Full
Feb 3
Last Quarter

Hourly Weather History & Observations

Time (CST) Temp. Windchill Dew Point Humidity Pressure Visibility Wind Dir Wind Speed Gust Speed Precip Events Conditions
12:53 AM 36.0 °F 28.0 °F 27.0 °F 70% 30.05 in 10.0 mi South 11.5 mph - N/A   Clear
1:53 AM 35.1 °F 26.9 °F 27.0 °F 72% 30.05 in 10.0 mi South 11.5 mph - N/A   Clear
2:53 AM 33.1 °F 26.9 °F 26.1 °F 75% 30.07 in 10.0 mi South 6.9 mph - N/A   Clear
3:53 AM 32.0 °F 26.4 °F 26.1 °F 79% 30.06 in 10.0 mi South 5.8 mph - N/A   Clear
4:53 AM 33.1 °F 26.1 °F 27.0 °F 78% 30.05 in 10.0 mi South 8.1 mph - N/A   Clear
5:53 AM 33.1 °F 25.5 °F 27.0 °F 78% 30.05 in 10.0 mi South 9.2 mph - N/A   Clear
6:53 AM 32.0 °F 23.6 °F 26.1 °F 79% 30.05 in 10.0 mi South 10.4 mph - N/A   Clear
8:53 AM 34.0 °F 25.5 °F 26.1 °F 73% 30.05 in 10.0 mi South 11.5 mph - N/A   Clear
9:53 AM 39.0 °F 29.9 °F 27.0 °F 62% 30.05 in 10.0 mi South 17.3 mph - N/A   Clear
10:53 AM 45.0 °F 37.9 °F 28.9 °F 53% 30.04 in 10.0 mi South 16.1 mph 23.0 mph N/A   Clear
11:53 AM 48.0 °F - 28.9 °F 48% 30.02 in 10.0 mi South 17.3 mph 25.3 mph N/A   Clear
12:53 PM 51.1 °F - 30.0 °F 44% 29.98 in 10.0 mi South 20.7 mph 29.9 mph N/A   Clear
1:53 PM 54.0 °F - 30.0 °F 40% 29.99 in 10.0 mi SSW 16.1 mph 24.2 mph N/A   Clear
2:53 PM 53.1 °F - 30.0 °F 41% 29.99 in 10.0 mi SSW 16.1 mph - N/A   Clear
3:53 PM 53.1 °F - 30.0 °F 41% 30.00 in 10.0 mi SSW 15.0 mph - N/A   Clear
4:53 PM 48.9 °F - 32.0 °F 52% 30.01 in 10.0 mi South 10.4 mph - N/A   Clear
5:53 PM 48.9 °F - 33.1 °F 54% 30.03 in 10.0 mi South 13.8 mph - N/A   Overcast
6:53 PM 46.9 °F - 33.1 °F 59% 30.06 in 10.0 mi SSW 10.4 mph - N/A   Clear
7:53 PM 42.1 °F 36.1 °F 32.0 °F 67% 30.09 in 10.0 mi SSW 10.4 mph - N/A   Clear
8:53 PM 41.0 °F 35.2 °F 32.0 °F 70% 30.12 in 10.0 mi SSW 9.2 mph - N/A   Clear
9:53 PM 39.9 °F 33.9 °F 32.0 °F 73% 30.14 in 10.0 mi SSW 9.2 mph - N/A   Clear
11:53 PM 32.0 °F 26.4 °F 28.9 °F 88% 30.21 in 10.0 mi South 5.8 mph - N/A   Clear